F4ECA-13 Weather Reports


Display with metric or nautical units.
time (UTC)temp
F
wind
direction
speed
MPH
gust
MPH
rain 1hr
in
rain 24hr
in
rain mn
in
humidity
%
barometer
mb
20260507184548 59 23 4.0 5.0 0.00 0.00 9.09 59 1011.2
20260507183517 59 23 4.0 4.0 0.00 0.00 9.09 59 1010.1
20260507182525 60 23 6.0 6.0 0.00 0.00 9.09 59 1011.2
20260507181545 60 23 4.0 4.0 0.00 0.00 9.09 58 1011.2
20260507180524 61 35 5.0 6.0 0.00 0.00 9.09 58 1010.1
20260507175524 61 23 4.0 6.0 0.00 0.00 9.09 58 1010.1
20260507174551 61 45 6.0 7.0 0.00 0.00 9.09 57 1010.1
20260507173524 61 45 7.0 8.0 0.00 0.00 9.09 57 1010.1
20260507172518 0 45 4.0 6.0 0.00 0.00 9.09 1010.1
20260507171546 62 41 5.0 6.0 0.00 0.00 9.09 54 1010.1
20260507170528 62 45 6.0 6.0 0.00 0.04 9.09 54 1010.1
20260507165547 63 45 6.0 8.0 0.00 0.04 9.09 54 1010.1
20260507164538 63 0 3.0 4.0 0.00 0.04 9.09 54 1010.1
20260507163550 0 35 4.0 5.0 0.00 0.04 9.09 1010.1
20260507162525 63 39 5.0 7.0 0.00 0.04 9.09 53 1010.1
20260507161517 64 45 4.0 5.0 0.00 0.04 9.09 52 1010.1
20260507160525 64 45 3.0 4.0 0.00 0.04 9.09 52 1010.1
20260507155538 65 49 6.0 6.0 0.00 0.04 9.09 51 1010.1
20260507154526 66 68 3.0 4.0 0.00 0.04 9.09 50 1010.1
20260507153609 66 68 2.0 3.0 0.00 0.04 9.09 50 1010.1
20260507152522 66 68 4.0 4.0 0.00 0.04 9.09 49 1010.1
20260507151530 67 40 4.0 5.0 0.00 0.04 9.09 49 1010.1
20260507150525 68 23 2.0 4.0 0.00 0.04 9.09 49 1011.2
20260507145545 68 23 2.0 3.0 0.00 0.04 9.09 49 1010.1
20260507144524 69 0 3.0 4.0 2.30 0.00 9.09 49 1010.1
20260507143526 68 45 7.0 9.0 0.00 0.04 2.75 48 1010.1
20260507142525 68 45 5.0 6.0 0.00 0.04 2.75 48 1011.2
20260507141524 69 0 3.0 3.0 0.00 0.04 2.75 49 1011.2
20260507140525 0 0 4.0 4.0 0.00 0.04 2.75 1011.2
20260507135517 69 338 5.0 6.0 0.00 0.04 2.75 49 1011.2
20260507134516 0 19 5.0 8.0 0.00 0.04 2.75 1011.2
20260507133536 70 0 5.0 6.0 0.00 0.04 2.71 48 1011.2
20260507132526 70 23 8.0 10.0 0.00 0.04 2.71 47 1011.2
20260507131530 70 3 4.0 6.0 0.00 0.04 2.71 47 1011.2
20260507130524 0 0 3.0 5.0 0.00 0.04 2.71 1011.2
20260507125526 71 81 3.0 4.0 0.00 0.04 2.71 46 1011.2
20260507124524 71 23 2.0 3.0 0.00 0.04 2.71 46 1011.2
20260507123525 72 23 1.0 2.0 0.00 0.04 2.71 47 1011.2
20260507122525 0 315 1.0 2.0 3.34 2.81 2.71 1011.2
20260507121545 73 315 1.0 2.0 0.00 0.04 2.71 49 1011.2
20260507120529 72 0 1.0 3.0 0.00 0.04 2.71 48 1011.2
20260507115521 71 0 2.0 3.0 0.00 0.04 2.71 48 1011.2
20260507114522 71 0 1.0 2.0 0.00 0.04 2.71 48 1011.2
20260507113524 71 0 3.0 4.0 0.00 0.04 2.68 48 1011.2
20260507112525 73 315 3.0 4.0 0.00 0.04 2.68 50 1011.2
20260507111520 73 305 3.0 5.0 0.00 0.04 2.68 51 1011.2
20260507110525 71 0 3.0 4.0 0.00 0.04 1.97 50 1011.2
20260507105529 70 337 4.0 6.0 0.00 0.04 1.38 50 1011.2
20260507104518 0 308 3.0 6.0 0.00 0.04 6.50 1011.2
20260507103545 69 315 1.0 2.0 0.00 0.04 6.68 51 1011.2
20260507102521 71 306 2.0 3.0 0.00 0.04 6.68 52 1012.2
20260507101556 70 293 2.0 2.0 0.00 0.04 6.68 54 1012.2
20260507100525 71 293 2.0 4.0 0.00 0.04 6.68 55 1011.2
20260507095526 0 226 2.0 3.0 0.00 0.04 6.68 1011.2
20260507094535 69 180 1.0 1.0 0.00 0.04 6.68 56 1011.2
20260507093522 70 180 2.0 3.0 0.00 0.04 6.68 57 1012.2
20260507092544 69 180 1.0 3.0 0.00 0.04 6.68 57 1011.2
20260507091547 66 180 2.0 3.0 0.00 0.04 6.68 63 1011.2
20260507090528 63 223 2.0 4.0 0.00 0.04 6.68 63 1011.2
20260507085524 61 270 2.0 2.0 0.00 0.04 6.68 64 1011.2
20260507084528 60 270 1.0 2.0 0.00 0.04 6.68 66 1011.2
20260507083524 59 270 1.0 3.0 0.00 2.33 6.68 66 1011.2
20260507082523 60 270 0.0 1.0 0.00 0.04 6.68 66 1011.2
20260507081518 60 270 3.0 4.0 0.00 0.04 6.68 65 1011.2
20260507080524 61 270 1.0 2.0 0.00 0.04 6.68 64 1011.2
20260507075524 61 0.0 0.0 0.00 0.04 6.68 64 1011.2
20260507074528 62 270 0.0 1.0 0.00 0.04 6.68 63 1011.2
20260507073528 63 270 1.0 2.0 0.00 0.04 6.68 63 1011.2
20260507072525 64 0.0 0.0 0.00 0.04 6.68 63 1011.2
20260507071528 59 270 1.0 1.0 0.00 0.04 6.68 67 1011.2
20260507070529 56 270 0.0 1.0 0.00 0.08 6.68 67 1011.2
20260507065524 56 270 1.0 1.0 0.00 0.08 6.68 66 1011.2
20260507064524 56 270 1.0 2.0 0.00 0.08 6.68 64 1011.2
20260507063525 56 270 3.0 4.0 0.00 0.08 6.68 64 1011.2
20260507062530 56 270 3.0 3.0 0.00 0.08 6.68 64 1011.2
20260507061528 56 270 4.0 4.0 0.00 0.08 6.68 64 1011.2
20260507060516 56 270 2.0 2.0 0.00 0.17 6.68 64 1011.2
20260507055525 56 270 2.0 3.0 0.00 0.17 6.68 64 1011.2
20260507054525 57 325 2.0 2.0 0.00 0.17 6.68 64 1011.2
20260507053528 56 0 0.0 1.0 0.00 0.17 6.68 64 1010.1
20260507052546 55 0.0 0.0 0.00 0.17 6.68 64 1010.1
20260507051553 55 0.0 0.0 0.00 0.17 6.68 64 1010.1
20260507050524 54 0.0 0.0 0.00 0.33 6.68 64 1010.1
20260507045545 54 0.0 0.0 0.00 0.33 6.68 64 1010.1
20260507044525 54 0.0 0.0 0.00 0.33 6.68 64 1010.1
20260507043524 54 0.0 0.0 0.00 0.33 6.68 64 1010.1
20260507042545 54 0.0 0.0 0.00 0.33 6.68 64 1010.1
20260507041528 54 0.0 0.0 0.00 0.33 6.68 64 1010.1
20260507040548 54 0.0 0.0 0.00 0.41 6.68 64 1010.1
20260507035524 54 0.0 0.0 0.00 0.41 6.68 64 1010.1
20260507034524 53 0.0 0.0 0.00 0.41 6.68 63 1010.1
20260507033546 53 0.0 0.0 0.00 0.41 6.68 63 1010.1
20260507032524 54 0.0 0.0 0.00 0.41 6.68 63 1010.1
20260507031539 54 0 1.0 1.0 0.00 0.41 6.68 63 1010.1
20260507030524 54 0 1.0 1.0 0.00 0.54 6.68 63 1010.1
20260507025526 54 0.0 0.0 0.00 0.54 6.68 63 1010.1
20260507024530 54 0 1.0 1.0 0.00 0.54 6.68 63 1010.1
20260507023522 55 0 3.0 3.0 0.00 0.54 6.68 63 1010.1
20260507022525 55 0.0 0.0 0.00 0.54 6.68 63 1010.1
20260507021524 55 0.0 0.0 0.00 0.54 6.68 63 1010.1
20260507020529 55 0.0 0.0 3.34 2.70 6.68 63 1010.1
20260507015519 55 0.0 0.0 0.00 0.58 3.34 63 1010.1
20260507014528 55 0.0 0.0 0.00 0.58 3.34 63 1010.1
20260507013525 55 0.0 0.0 0.00 0.58 3.34 63 1010.1
20260507012519 0 0.0 0.0 0.00 0.58 3.34 1010.1
20260507011528 55 0.0 0.0 0.00 0.58 3.34 63 1010.1
20260507010515 0 0.0 0.0 0.00 2.64 3.34 1010.1